Flight Track Log - Related Links

Times and Time Zones

All times are in EDT time to prevent confusion due to time zone crossing. See the UCA3597 flight status page for this flight to view local times or setup timezone preferences in your user account.

Time Position Orientation Groundspeed Altitude Reporting Facility
EDT Latitude Longitude Course Direction KTS MPH feet Rate Location/Type
Sun 07:21:48 PM 42.1467 -76.0208 212° Southwest 165 190 4,700  Level New York Center
Sun 07:22:48 PM 42.1175 -76.0658 229° Southwest 165 190 6,400 1,650 Climbing New York Center
Sun 07:23:48 PM 42.0764 -76.1047 215° Southwest 172 198 8,000 1,750 Climbing New York Center
Sun 07:24:48 PM 42.0286 -76.1453 212° Southwest 188 216 9,900 1,700 Climbing New York Center
Sun 07:25:00 PM 41.9433 -76.1059 209° Southwest  Level Estimated
Sun 07:25:48 PM 41.9894 -76.1842 216° Southwest 188 216 11,400  Level New York Center
Sun 07:26:00 PM 41.8828 -76.1345 212° Southwest  Level Estimated
Sun 07:26:48 PM 41.9461 -76.2194 211° Southwest 188 216 12,800  Level New York Center
Sun 07:27:48 PM 41.9089 -76.2583 218° Southwest 188 216 14,300 1,500 Climbing New York Center
Sun 07:28:48 PM 41.8611 -76.3017 214° Southwest 188 216 15,800 900 Climbing New York Center
Sun 07:29:48 PM 41.8133 -76.3450 214° Southwest 202 232 16,100 100 Climbing New York Center
Sun 07:30:48 PM 41.7589 -76.3961 215° Southwest 231 266 16,000 -50 Descending New York Center
Sun 07:31:48 PM 41.7067 -76.4417 213° Southwest 250 288 16,000  Level New York Center
Sun 07:32:48 PM 41.6481 -76.4922 213° Southwest 250 288 16,000  Level New York Center
Sun 07:33:48 PM 41.5850 -76.5506 215° Southwest 256 295 16,000  Level New York Center
Sun 07:34:48 PM 41.5281 -76.6039 215° Southwest 256 295 16,000  Level New York Center
Sun 07:35:48 PM 41.4714 -76.6544 214° Southwest 256 295 16,000  Level New York Center
Sun 07:36:48 PM 41.4147 -76.7075 215° Southwest 256 295 16,000  Level New York Center
Sun 07:37:48 PM 41.3558 -76.7606 214° Southwest 256 295 16,000  Level New York Center
Sun 07:38:48 PM 41.2897 -76.7878 197° South 251 289 16,000  Level New York Center
Sun 07:39:48 PM 41.2225 -76.8011 188° South 251 289 16,000  Level New York Center
Sun 07:40:48 PM 41.1553 -76.8117 187° South 251 289 16,000  Level New York Center
Sun 07:41:48 PM 41.0836 -76.8272 189° South 256 295 16,000  Level New York Center
Sun 07:42:48 PM 41.0161 -76.8406 188° South 256 295 16,000  Level New York Center
Sun 07:43:48 PM 40.9467 -76.8564 190° South 256 295 16,000  Level New York Center
Sun 07:44:48 PM 40.8794 -76.8667 187° South 256 295 16,000  Level New York Center
Sun 07:45:48 PM 40.8183 -76.8806 190° South 256 295 16,000  Level New York Center
Sun 07:46:48 PM 40.7444 -76.8986 190° South 256 295 16,000  Level New York Center
Sun 07:47:48 PM 40.6831 -76.9178 193° South 256 295 16,000  Level New York Center
Sun 07:48:48 PM 40.6089 -76.9411 193° South 256 295 16,000  Level New York Center
Sun 07:49:48 PM 40.5472 -76.9603 193° South 256 295 16,000  Level New York Center
Sun 07:50:48 PM 40.4731 -76.9836 193° South 256 295 16,000  Level New York Center
Sun 07:51:48 PM 40.4053 -77.0047 193° South 251 289 16,000 -418 Level New York Center
Sun 07:53:26 PM 40.3000 -77.0333 192° South 252 290 14,900 -684 Descending Potomac TRACON
Sun 07:54:26 PM 40.2333 -77.0667 201° Southwest 252 290 14,200 -700 Descending Potomac TRACON
Sun 07:55:26 PM 40.1667 -77.0833 191° South 249 287 13,500 -700 Descending Potomac TRACON
Sun 07:56:26 PM 40.1000 -77.1000 191° South 246 283 12,800 -678 Descending Potomac TRACON
Sun 07:57:21 PM 40.0333 -77.1167 191° South 239 275 12,200 -678 Descending Potomac TRACON
Sun 07:58:21 PM 39.9667 -77.1333 191° South 240 276 11,500 -700 Descending Potomac TRACON
Sun 07:59:21 PM 39.9000 -77.1833 210° Southwest 239 275 10,800 -750 Descending Potomac TRACON
Sun 08:00:21 PM 39.8500 -77.2167 207° Southwest 232 267 10,000 -684 Descending Potomac TRACON
Sun 08:01:15 PM 39.8000 -77.2333 194° South 229 264 9,500 -632 Descending Potomac TRACON
Sun 08:02:15 PM 39.7333 -77.2667 201° Southwest 229 264 8,800 -756 Descending Potomac TRACON
Sun 08:03:22 PM 39.6667 -77.3167 210° Southwest 251 289 7,900 -709 Descending Potomac TRACON
Sun 08:04:22 PM 39.6000 -77.3500 201° Southwest 259 298 7,300 -700 Descending Potomac TRACON
Sun 08:05:22 PM 39.5333 -77.3833 201° Southwest 249 287 6,500 -750 Descending Potomac TRACON
Sun 08:06:22 PM 39.4667 -77.4167 201° Southwest 241 277 5,800 -700 Descending Potomac TRACON
Sun 08:07:22 PM 39.4167 -77.4333 194° South 243 280 5,100 -600 Descending Potomac TRACON
Sun 08:08:22 PM 39.3333 -77.4333 180° South 241 277 4,600 -500 Descending Potomac TRACON
Sun 08:09:22 PM 39.2833 -77.4333 180° South 237 273 4,100 -300 Descending Potomac TRACON
Sun 08:10:22 PM 39.2167 -77.4333 180° South 229 264 4,000 -100 Descending Potomac TRACON
Sun 08:11:22 PM 39.1500 -77.4333 180° South 221 254 3,900 -524 Descending Potomac TRACON
Sun 08:12:28 PM 39.1000 -77.4333 180° South 173 199 2,900 -905 Descending Potomac TRACON
Sun 08:13:28 PM 39.0500 -77.4333 180° South 166 191 2,000 -850 Descending Potomac TRACON
Sun 08:14:28 PM 39.0000 -77.4333 180° South 146 168 1,200 -737 Descending Potomac TRACON
Sun 08:15:22 PM 38.9667 -77.4333 180° South 112 129 600 -667 Descending Potomac TRACON

Login

Don't have an account? Register now (free) for customized features, flight alerts, and more!